Overview Statistics Trail Chart Weather Telemetry Raw packets
 

This is the latest recevied weather packets stored in our database for station/object HP3ICC-22. If no packets are shown the sender has not sent any weather packets the latest 10 day(s).

<< 21 22 23 24 25 26 27 >>
Time Temp. Humidity Pressure Rain* Wind** Luminosity Snow
1777387101 12.22° C 85% 1016 hPa 0 mm - - -
1777385961 11.67° C 84% 1015 hPa 0 mm - - -
1777385900 11.67° C 84% 1015 hPa 0 mm - - -
1777384760 12.78° C 84% 1015 hPa 0 mm - - -
1777384700 12.78° C 84% 1015 hPa 0 mm - - -
1777383560 10.56° C 89% 1015 hPa 0 mm - - -
1777383499 10.56° C 89% 1015 hPa 0 mm - - -
1777382359 10.56° C 86% 1014 hPa 0 mm - - -
1777382299 10.56° C 86% 1014 hPa 0 mm - - -
1777381159 11.67° C 87% 1015 hPa 0 mm - - -
1777381098 11.67° C 87% 1015 hPa 0 mm - - -
1777379958 8.89° C 89% 1015 hPa 0 mm - - -
1777379898 8.89° C 89% 1015 hPa 0 mm - - -
1777378757 10° C 89% 1013 hPa 0 mm - - -
1777378697 10° C 89% 1013 hPa 0 mm - - -
1777377557 11.11° C 90% 1014 hPa 0 mm - - -
1777377496 11.11° C 90% 1014 hPa 0 mm - - -
1777376356 7.78° C 86% 1014 hPa 0 mm - - -
1777376296 7.78° C 86% 1014 hPa 0 mm - - -
1777375156 8.33° C 70% 1013 hPa 0 mm - - -
1777375095 8.33° C 70% 1013 hPa 0 mm - - -
1777373955 7.78° C 88% 1015 hPa 0 mm - - -
1777373895 7.78° C 88% 1015 hPa 0 mm - - -
1777372754 8.33° C 70% 1015 hPa 0 mm - - -
1777372694 8.33° C 70% 1015 hPa 0 mm - - -

* Rain latest hour (hover to see other rain measurements)
** Current wind speed in m/s (hover to see current wind gust speed)